Погода в Хлопяниках

Украина / Черниговская область     51°44′39″N   32°42′52″E
темп.,
°C
ветер,
м/с
пор.,
м/с
влажн.,
%
обл.,
%
осадки,
мм/ч
давл.,
гПа
погр.,
м
4 марта, чт
чт423:00−1з49900 0.0 1020241
02:00−1зюз49890 0.0 1018242
05:00−5юз410930 0.0 1015211
08:00−2юз612944 0.0 1012330
11:00+1юз5109934 0.0 1010383
14:00+2зюз6119965 0.0 1007487
17:00+2зюз511100100 0.0 1006359
20:00+2з3899100 0.1 1006324
5 марта, пт
пт523:000сз4109297 0.2 1006598
02:00−2зсз379577 0.2 1008195
05:00−3сз259774 0.0 1010168
08:00−2ссз249281 0.0 1011197
11:000с237971 0.0 1012594
14:000ссз337581 0.0 1013806
17:00−1ссз2380100 0.0 101491
20:00−3ссз2484100 0.0 1016124
6 марта, сб
сб623:00−3сз2583100 0.0 1017166
02:00−4ссз4981100 0.0 1019453
05:00−6ссз397731 0.0 1019451
08:00−5сз5106916 0.0 1020788
11:00−2сз686510 0.0 10211223
14:00−2сз466553 0.1 10211223
17:00−3сз366937 0.0 1021297
20:00−5зсз357719 0.0 1023142
7 марта, вс
вс723:00−5зюз37770 0.0 1023196
02:00−5зюз510820 0.0 1021340
05:00−5юз6137432 0.0 1018559
08:00−4юз8167066 0.0 1016822
11:00−1зюз101769100 0.0 10121282
14:00+1з101673100 0.0 10101368
17:00+1зюз81479100 0.0 10091041
20:000зюз6148497 0.1 1008978
8 марта, пн
пн823:000зюз8158696 0.0 10061172
02:00−1зсз7137698 0.5 10061136
05:00−3зсз5127297 0.0 10081077
08:00−3зсз6107175 0.0 10101070
11:00−2зсз5766100 0.0 10111090
14:00−2зсз4563100 0.1 10121174
17:00−3зсз2375100 0.1 1012612
20:00−4ссв1292100 0.3 1013180